Content
SEND FEEDBACK

Daily
Averages
Monthly
Summary
United States of America

NEW YORK - CENTRAL PARK, NEW YORK


Home > North America > United States > New York
Elevation: 14 feet     Latitude: 40 47N     Longitude: 073 58W

WEATHER
 
SELECT A DAY
Number of Records: 148,168;   Date Range: 11/1/95 - 8/12/14
 
SHARE

PRINT THIS DATA

[ ← Previous Day ]
WEATHER ALMANAC - MAY 1, 2013
[ Next Day → ]
[ °C ]   °F
Weather ElementAverageHighLow
Temperature57 °F68 °F (1:51 pm)48 °F (5:51 am)
Dewpoint36.4 °F43 °F (3:51 pm)27 °F (10:51 am)
Humidity47.3 %69 % (9:51 pm)28 % (10:51 am)
Barometer30.43 in30.48 in (8:51 pm)30.35 in (1:51 am)
Wind Speed4.8 mph12.7 mph (9:51 am)
Wind Gust18.4 mph (10:51 am)
Weather ElementAverage
Visibility10 mi
Wind DirectionNE (43 °)

Weather ElementTotal
Precipitation---
Heating Degree Days7 (Base 65)
Growing Degree Days8 (Base 50)
Averaged from 23 records on May 1, 2013
WEATHER CONDITIONS BREAKOUT
WIND DIRECTION BREAKOUT
WEATHER BY HOUR - MAY 1, 2013
[ °C ]   °F
Local TimeTemperatureDewpointHumidityBarometerVisibilityWind DirectionWind SpeedGust SpeedPrecipitationEventsConditions
1:51 AM51.1 °F28.9 °F43 %30.35 in10.0 miNNE (30°)3.5 mphClear
2:51 AM51.1 °F28.9 °F43 %30.35 in10.0 miCalmClear
3:51 AM51.1 °F30.0 °F44 %30.36 in10.0 miENE (60°)3.5 mphClear
4:51 AM48.9 °F28.9 °F46 %30.37 in10.0 miEast (80°)5.8 mphClear
5:51 AM48.0 °F30.0 °F50 %30.39 in10.0 miENE (60°)4.6 mphClear
6:51 AM50.0 °F32.0 °F50 %30.41 in10.0 miENE (70°)3.5 mphClear
7:51 AM52.0 °F30.9 °F45 %30.42 in10.0 miENE (60°)4.6 mphClear
8:51 AM55.9 °F30.0 °F37 %30.44 in10.0 miENE (60°)4.6 mphClear
9:51 AM57.9 °F28.9 °F33 %30.45 in10.0 miEast (80°)12.7 mph17.3 mphClear
10:51 AM60.1 °F27.0 °F28 %30.46 in10.0 miEast (90°)12.7 mph18.4 mphClear
11:51 AM63.0 °F37.9 °F40 %30.44 in10.0 miEast (100°)8.1 mph17.3 mphClear
12:51 PM66.0 °F39.0 °F37 %30.44 in10.0 miNE (50°)8.1 mphClear
1:51 PM68.0 °F39.9 °F36 %30.43 in10.0 miENE (70°)9.2 mphClear
2:51 PM66.9 °F42.1 °F40 %30.43 in10.0 miCalmClear
3:51 PM64.9 °F43.0 °F45 %30.43 in10.0 miNorthClear
4:51 PM63.0 °F43.0 °F48 %30.43 in10.0 miVariable5.8 mphClear
5:51 PM62.1 °F42.1 °F48 %30.44 in10.0 miNorthClear
6:51 PM60.1 °F42.1 °F51 %30.45 in10.0 miVariable3.5 mphClear
7:51 PM57.0 °F42.1 °F57 %30.46 in10.0 miSSE (160°)4.6 mphClear
8:51 PM55.0 °F43.0 °F64 %30.48 in10.0 miVariable3.5 mphClear
9:51 PM53.1 °F43.0 °F69 %30.48 in10.0 miCalmClear
10:51 PM53.1 °F42.1 °F66 %30.48 in10.0 miCalmClear
11:51 PM52.0 °F42.1 °F69 %30.48 in10.0 miNNE (20°)3.5 mphClear
Hourly data recorded from KNYC, located miles away from New York - Central Park, New York







STORIES FROM OUR PARTNERS